• In Deutschland
  • Länderverzeichnis
  • Für 7 Tage
  • Wassertemperatur
  • Satellitenkarten
  • Wetterkarte
  • Widgets
  • user-avatar
    Anmelden

    Stündliche Wetter Madinat 'Isa

    Heute, 23 September, Samstag

    Zeit Temperatur Niederschläge Wind Luftdruck Luftfeuchtigkeit
    00:00 +34°C° 0 mm 1 m/S 753 mmHg 47%
    01:00 +33°C° 0 mm 1 m/S 753 mmHg 47%
    02:00 +33°C° 0 mm 1 m/S 753 mmHg 47%
    03:00 +32°C° 0 mm 1 m/S 753 mmHg 52%
    04:00 +32°C° 0 mm 1 m/S 753 mmHg 53%
    05:00 +32°C° 0 mm 1 m/S 754 mmHg 53%
    06:00 +32°C° 0 mm 1 m/S 754 mmHg 53%
    07:00 +34°C° 0 mm 1 m/S 754 mmHg 49%
    08:00 +35°C° 0 mm 1 m/S 754 mmHg 44%
    09:00 +38°C° 0 mm 2 m/S 755 mmHg 40%
    10:00 +39°C° 0 mm 2 m/S 755 mmHg 36%
    11:00 +40°C° 0 mm 3 m/S 754 mmHg 32%
    12:00 +42°C° 0 mm 3 m/S 754 mmHg 28%
    13:00 +42°C° 0 mm 4 m/S 754 mmHg 29%
    14:00 +42°C° 0 mm 4 m/S 754 mmHg 30%
    15:00 +41°C° 0 mm 4 m/S 754 mmHg 30%
    16:00 +40°C° 0 mm 4 m/S 754 mmHg 36%
    17:00 +38°C° 0 mm 4 m/S 754 mmHg 42%
    18:00 +37°C° 0 mm 3 m/S 754 mmHg 48%
    19:00 +36°C° 0 mm 3 m/S 754 mmHg 51%
    20:00 +36°C° 0 mm 3 m/S 754 mmHg 54%
    21:00 +35°C° 0 mm 2 m/S 754 mmHg 57%
    22:00 +35°C° 0 mm 2 m/S 754 mmHg 58%
    23:00 +35°C° 0 mm 2 m/S 754 mmHg 59%

    Morgen, 24 September, Sonntag

    Zeit Temperatur Niederschläge Wind Luftdruck Luftfeuchtigkeit
    00:00 +34°C° 0 mm 2 m/S 754 mmHg 60%
    01:00 +34°C° 0 mm 2 m/S 754 mmHg 59%
    02:00 +34°C° 0 mm 2 m/S 754 mmHg 58%
    03:00 +34°C° 0 mm 2 m/S 754 mmHg 57%
    04:00 +34°C° 0 mm 3 m/S 755 mmHg 54%
    05:00 +34°C° 0 mm 3 m/S 755 mmHg 52%
    06:00 +34°C° 0 mm 4 m/S 755 mmHg 49%
    07:00 +36°C° 0 mm 4 m/S 755 mmHg 43%
    08:00 +37°C° 0 mm 4 m/S 755 mmHg 37%
    09:00 +38°C° 0 mm 4 m/S 756 mmHg 31%
    10:00 +40°C° 0 mm 4 m/S 755 mmHg 30%
    11:00 +40°C° 0 mm 3 m/S 755 mmHg 29%
    12:00 +42°C° 0 mm 3 m/S 755 mmHg 28%
    13:00 +42°C° 0 mm 4 m/S 755 mmHg 30%
    14:00 +42°C° 0 mm 4 m/S 754 mmHg 32%
    15:00 +41°C° 0 mm 4 m/S 754 mmHg 34%
    16:00 +40°C° 0 mm 4 m/S 754 mmHg 39%
    17:00 +38°C° 0 mm 4 m/S 754 mmHg 45%
    18:00 +37°C° 0 mm 4 m/S 754 mmHg 50%
    19:00 +37°C° 0 mm 3 m/S 754 mmHg 52%
    20:00 +36°C° 0 mm 3 m/S 755 mmHg 55%
    21:00 +36°C° 0 mm 3 m/S 755 mmHg 57%
    22:00 +35°C° 0 mm 2 m/S 755 mmHg 59%
    23:00 +35°C° 0 mm 2 m/S 755 mmHg 60%

    übermorgen, 25 September, Montag

    Zeit Temperatur Niederschläge Wind Luftdruck Luftfeuchtigkeit
    00:00 +34°C° 0 mm 2 m/S 755 mmHg 62%
    01:00 +34°C° 0 mm 2 m/S 754 mmHg 63%
    02:00 +32°C° 0 mm 1 m/S 754 mmHg 64%
    03:00 +32°C° 0 mm 1 m/S 754 mmHg 65%
    04:00 +32°C° 0 mm 1 m/S 754 mmHg 64%
    05:00 +32°C° 0 mm 1 m/S 754 mmHg 63%
    06:00 +32°C° 0 mm 2 m/S 755 mmHg 63%
    07:00 +34°C° 0 mm 2 m/S 755 mmHg 59%
    08:00 +35°C° 0 mm 2 m/S 755 mmHg 54%
    09:00 +36°C° 0 mm 2 m/S 755 mmHg 50%
    10:00 +37°C° 0 mm 2 m/S 755 mmHg 45%
    11:00 +38°C° 0 mm 2 m/S 755 mmHg 40%
    12:00 +39°C° 0 mm 2 m/S 755 mmHg 36%
    13:00 +40°C° 0 mm 3 m/S 754 mmHg 34%
    14:00 +40°C° 0 mm 3 m/S 754 mmHg 33%
    15:00 +41°C° 0 mm 4 m/S 753 mmHg 31%
    16:00 +40°C° 0 mm 4 m/S 754 mmHg 37%
    17:00 +38°C° 0 mm 4 m/S 754 mmHg 42%
    18:00 +37°C° 0 mm 4 m/S 754 mmHg 48%
    19:00 +36°C° 0 mm 3 m/S 754 mmHg 50%
    20:00 +36°C° 0 mm 3 m/S 755 mmHg 52%
    21:00 +35°C° 0 mm 2 m/S 755 mmHg 55%
    22:00 +35°C° 0 mm 2 m/S 755 mmHg 56%
    23:00 +33°C° 0 mm 1 m/S 754 mmHg 58%

    26 September, Dienstag

    Zeit Temperatur Niederschläge Wind Luftdruck Luftfeuchtigkeit
    00:00 +33°C° 0 mm 1 m/S 754 mmHg 60%
    01:00 +32°C° 0 mm 1 m/S 754 mmHg 60%
    02:00 +32°C° 0 mm 1 m/S 754 mmHg 60%
    03:00 +31°C° 0 mm 1 m/S 753 mmHg 61%
    04:00 +31°C° 0 mm 1 m/S 754 mmHg 60%
    05:00 +31°C° 0 mm 1 m/S 754 mmHg 58%
    06:00 +31°C° 0 mm 1 m/S 754 mmHg 57%
    07:00 +34°C° 0 mm 2 m/S 755 mmHg 52%
    08:00 +35°C° 0 mm 2 m/S 755 mmHg 46%
    09:00 +37°C° 0 mm 2 m/S 756 mmHg 40%
    10:00 +38°C° 0 mm 2 m/S 755 mmHg 36%
    11:00 +39°C° 0 mm 2 m/S 755 mmHg 32%
    12:00 +40°C° 0 mm 2 m/S 755 mmHg 28%
    13:00 +40°C° 0 mm 2 m/S 754 mmHg 27%
    14:00 +40°C° 0 mm 2 m/S 754 mmHg 26%
    15:00 +40°C° 0 mm 2 m/S 753 mmHg 25%
    16:00 +39°C° 0 mm 2 m/S 754 mmHg 28%
    17:00 +38°C° 0 mm 2 m/S 754 mmHg 31%
    18:00 +37°C° 0 mm 2 m/S 754 mmHg 33%
    19:00 +37°C° 0 mm 2 m/S 755 mmHg 35%
    20:00 +36°C° 0 mm 2 m/S 755 mmHg 38%
    21:00 +35°C° 0 mm 2 m/S 755 mmHg 40%
    22:00 +35°C° 0 mm 2 m/S 755 mmHg 42%
    23:00 +35°C° 0 mm 2 m/S 755 mmHg 44%

    27 September, Mittwoch

    Zeit Temperatur Niederschläge Wind Luftdruck Luftfeuchtigkeit
    00:00 +35°C° 0 mm 2 m/S 755 mmHg 46%
    01:00 +34°C° 0 mm 2 m/S 754 mmHg 48%
    02:00 +33°C° 0 mm 1 m/S 754 mmHg 50%
    03:00 +32°C° 0 mm 1 m/S 754 mmHg 52%
    04:00 +32°C° 0 mm 1 m/S 754 mmHg 51%
    05:00 +32°C° 0 mm 1 m/S 755 mmHg 49%
    06:00 +32°C° 0 mm 1 m/S 755 mmHg 48%
    07:00 +35°C° 0 mm 2 m/S 756 mmHg 43%
    08:00 +36°C° 0 mm 2 m/S 756 mmHg 37%
    09:00 +38°C° 0 mm 2 m/S 756 mmHg 32%
    10:00 +39°C° 0 mm 2 m/S 756 mmHg 29%
    11:00 +40°C° 0 mm 1 m/S 756 mmHg 26%
    12:00 +41°C° 0 mm 1 m/S 755 mmHg 23%
    13:00 +41°C° 0 mm 2 m/S 755 mmHg 22%
    14:00 +41°C° 0 mm 2 m/S 755 mmHg 21%
    15:00 +42°C° 0 mm 3 m/S 754 mmHg 21%
    16:00 +40°C° 0 mm 3 m/S 754 mmHg 25%
    17:00 +39°C° 0 mm 3 m/S 754 mmHg 29%
    18:00 +37°C° 0 mm 3 m/S 755 mmHg 33%
    19:00 +37°C° 0 mm 3 m/S 755 mmHg 35%
    20:00 +36°C° 0 mm 2 m/S 755 mmHg 37%
    21:00 +36°C° 0 mm 2 m/S 755 mmHg 39%
    22:00 +35°C° 0 mm 2 m/S 755 mmHg 41%
    23:00 +35°C° 0 mm 2 m/S 755 mmHg 44%

    28 September, Donnerstag

    Zeit Temperatur Niederschläge Wind Luftdruck Luftfeuchtigkeit
    00:00 +34°C° 0 mm 2 m/S 754 mmHg 46%
    01:00 +34°C° 0 mm 2 m/S 754 mmHg 48%
    02:00 +34°C° 0 mm 2 m/S 754 mmHg 49%
    03:00 +32°C° 0 mm 2 m/S 754 mmHg 50%
    04:00 +32°C° 0 mm 2 m/S 754 mmHg 49%
    05:00 +32°C° 0 mm 2 m/S 755 mmHg 48%
    06:00 +32°C° 0 mm 2 m/S 755 mmHg 47%
    07:00 +34°C° 0 mm 2 m/S 755 mmHg 41%
    08:00 +36°C° 0 mm 2 m/S 756 mmHg 36%
    09:00 +38°C° 0 mm 2 m/S 756 mmHg 30%
    10:00 +39°C° 0 mm 2 m/S 756 mmHg 27%
    11:00 +40°C° 0 mm 2 m/S 755 mmHg 24%
    12:00 +41°C° 0 mm 1 m/S 755 mmHg 21%
    13:00 +41°C° 0 mm 2 m/S 755 mmHg 20%
    14:00 +41°C° 0 mm 2 m/S 754 mmHg 19%
    15:00 +42°C° 0 mm 3 m/S 754 mmHg 18%
    16:00 +40°C° 0 mm 3 m/S 754 mmHg 22%
    17:00 +39°C° 0 mm 3 m/S 754 mmHg 26%
    18:00 +37°C° 0 mm 2 m/S 754 mmHg 30%
    19:00 +37°C° 0 mm 2 m/S 755 mmHg 31%
    20:00 +36°C° 0 mm 2 m/S 755 mmHg 33%
    21:00 +34°C° 0 mm 1 m/S 755 mmHg 35%
    22:00 +34°C° 0 mm 1 m/S 754 mmHg 36%
    23:00 +33°C° 0 mm 1 m/S 754 mmHg 38%
    Mehr zeigen